timestamp,surface_pressure_avg,surface_temp_avg,battery_voltage,lat,long
2019-07-30 00:00:00+00:00,303.1313,17.0,12.97,47.84626,-54.09684
2019-07-30 00:10:00+00:00,295.0098,17.1,12.89,47.84626,-54.09684
2019-07-30 00:20:00+00:00,287.8047,17.53,12.97,47.84626,-54.09684
2019-07-30 00:30:00+00:00,282.9481,17.8,12.97,47.84626,-54.09684
2019-07-30 00:40:00+00:00,273.2714,17.9,12.97,47.84626,-54.09684
2019-07-30 00:50:00+00:00,264.2164,17.9,12.97,47.84626,-54.09684
2019-07-30 01:00:00+00:00,258.2681,17.7,12.97,47.84626,-54.09684
2019-07-30 01:10:00+00:00,252.7347,17.6,12.89,47.84626,-54.09684
2019-07-30 01:20:00+00:00,242.8663,17.6,12.97,47.84626,-54.09684
2019-07-30 01:30:00+00:00,234.2548,17.6,12.97,47.84626,-54.09684
2019-07-30 01:40:00+00:00,230.8331,17.6,12.97,47.84626,-54.09684
2019-07-30 01:50:00+00:00,228.4948,17.6,12.97,47.84626,-54.09684
2019-07-30 02:00:00+00:00,223.3847,17.6,12.89,47.84626,-54.09684
2019-07-30 02:10:00+00:00,217.6764,17.67,12.81,47.84626,-54.09684
2019-07-30 02:20:00+00:00,214.7331,17.69,12.89,47.84626,-54.09684
2019-07-30 02:30:00+00:00,210.1464,17.7,12.97,47.84626,-54.09684
2019-07-30 02:40:00+00:00,204.4414,17.7,12.97,47.84626,-54.09684
2019-07-30 02:50:00+00:00,201.3948,17.7,12.97,47.84626,-54.09684
2019-07-30 03:00:00+00:00,200.2198,17.7,12.89,47.84626,-54.09684
2019-07-30 03:10:00+00:00,197.5981,17.7,12.81,47.84626,-54.09684
2019-07-30 03:20:00+00:00,196.2482,17.84,12.89,47.84626,-54.09684
2019-07-30 03:30:00+00:00,199.5531,18.0,12.89,47.84626,-54.09684
2019-07-30 03:40:00+00:00,203.3848,18.1,12.97,47.84626,-54.09684
2019-07-30 03:50:00+00:00,203.0732,18.18,12.97,47.84626,-54.09684
2019-07-30 04:00:00+00:00,203.8198,18.2,12.89,47.84626,-54.09684
2019-07-30 04:10:00+00:00,206.3664,18.2,12.81,47.84626,-54.09684
2019-07-30 04:20:00+00:00,205.8448,18.2,12.89,47.84626,-54.09684
2019-07-30 04:30:00+00:00,203.5414,18.2,12.89,47.84626,-54.09684
2019-07-30 04:40:00+00:00,203.7115,18.2,12.97,47.84626,-54.09684
2019-07-30 04:50:00+00:00,205.6048,18.19,12.97,47.84626,-54.09684
2019-07-30 05:00:00+00:00,208.2381,18.1,12.89,47.84626,-54.09684
2019-07-30 05:10:00+00:00,211.0198,18.0,12.81,47.84626,-54.09684
2019-07-30 05:20:00+00:00,211.7081,18.0,12.89,47.84626,-54.09684
2019-07-30 05:30:00+00:00,215.2381,18.0,12.89,47.84626,-54.09684
2019-07-30 05:40:00+00:00,222.0448,18.0,12.89,47.84626,-54.09684
2019-07-30 05:50:00+00:00,224.4881,18.0,12.89,47.84626,-54.09684
2019-07-30 06:00:00+00:00,225.4398,18.0,12.81,47.84626,-54.09684
2019-07-30 06:10:00+00:00,229.9898,18.0,12.81,47.84626,-54.09684
2019-07-30 06:20:00+00:00,235.6498,18.03,12.89,47.84626,-54.09684
2019-07-30 06:30:00+00:00,239.6197,18.08,12.89,47.84626,-54.09684
2019-07-30 06:40:00+00:00,242.5597,18.1,12.89,47.84626,-54.09684
2019-07-30 06:50:00+00:00,247.8981,18.1,12.89,47.84626,-54.09684
2019-07-30 07:00:00+00:00,255.7514,18.1,12.81,47.84626,-54.09684
2019-07-30 07:10:00+00:00,262.8098,18.1,12.73,47.84626,-54.09684
2019-07-30 07:20:00+00:00,269.4597,18.1,12.81,47.84626,-54.09684
2019-07-30 07:30:00+00:00,274.0397,18.1,12.81,47.84626,-54.09684
2019-07-30 07:40:00+00:00,280.1914,18.0,12.89,47.84626,-54.09684
2019-07-30 07:50:00+00:00,286.273,17.99,12.89,47.84626,-54.09684
2019-07-30 08:00:00+00:00,290.2981,18.0,12.81,47.84626,-54.09684
2019-07-30 08:10:00+00:00,295.5114,18.04,12.73,47.84626,-54.09684
2019-07-30 08:20:00+00:00,302.0647,18.0,12.81,47.84626,-54.09684
2019-07-30 08:30:00+00:00,305.5447,18.0,12.81,47.84626,-54.09684
2019-07-30 08:40:00+00:00,307.6363,18.1,12.81,47.84626,-54.09684
2019-07-30 08:50:00+00:00,313.628,18.0,12.81,47.84626,-54.09684
2019-07-30 09:00:00+00:00,318.5329,17.8,12.81,47.84626,-54.09684
2019-07-30 09:10:00+00:00,319.833,17.8,12.73,47.84626,-54.09684
2019-07-30 09:20:00+00:00,320.528,17.8,12.81,47.84626,-54.09684
2019-07-30 09:30:00+00:00,323.6046,17.7,12.81,47.84626,-54.09684
2019-07-30 09:40:00+00:00,327.6597,17.68,12.81,47.84626,-54.09684
2019-07-30 09:50:00+00:00,326.9464,17.7,12.81,47.84626,-54.09684
2019-07-30 10:00:00+00:00,323.1096,17.79,12.81,47.84626,-54.09684
2019-07-30 10:10:00+00:00,323.728,17.79,12.73,47.84626,-54.09684
2019-07-30 10:20:00+00:00,325.1197,17.76,12.81,47.84626,-54.09684
2019-07-30 10:30:00+00:00,324.0579,17.81,12.89,47.84626,-54.09684
2019-07-30 10:40:00+00:00,321.493,17.89,12.89,47.84626,-54.09684
2019-07-30 10:50:00+00:00,321.373,17.89,12.97,47.84626,-54.09684
2019-07-30 11:00:00+00:00,318.708,17.9,12.97,47.84626,-54.09684
2019-07-30 11:10:00+00:00,316.1429,17.9,12.89,47.84626,-54.09684
2019-07-30 11:20:00+00:00,316.1663,17.97,12.97,47.84626,-54.09684
2019-07-30 11:30:00+00:00,310.8362,18.0,12.97,47.84626,-54.09684
2019-07-30 11:40:00+00:00,303.1047,18.08,13.05,47.84626,-54.09684
2019-07-30 11:50:00+00:00,298.853,18.1,13.05,47.84626,-54.09684
2019-07-30 12:00:00+00:00,297.3813,18.1,13.05,47.84626,-54.09684
2019-07-30 12:10:00+00:00,289.5148,18.1,13.05,47.84626,-54.09684
2019-07-30 12:20:00+00:00,279.6697,18.1,13.21,47.84626,-54.09684
2019-07-30 12:30:00+00:00,272.8647,18.15,13.29,47.84626,-54.09684
2019-07-30 12:40:00+00:00,267.068,18.2,13.44,47.84626,-54.09684
2019-07-30 12:50:00+00:00,257.8898,18.2,13.44,47.84626,-54.09684
2019-07-30 13:00:00+00:00,250.9414,18.29,13.44,47.84626,-54.09684
2019-07-30 13:10:00+00:00,245.7764,18.33,13.44,47.84626,-54.09684
2019-07-30 13:20:00+00:00,238.0281,18.4,13.6,47.84626,-54.09684
2019-07-30 13:30:00+00:00,228.843,18.47,13.68,47.84626,-54.09684
2019-07-30 13:40:00+00:00,224.0981,18.5,13.68,47.84626,-54.09684
2019-07-30 13:50:00+00:00,219.1281,18.5,13.92,47.84626,-54.09684
2019-07-30 14:00:00+00:00,211.4715,18.5,14.0,47.84626,-54.09684
2019-07-30 14:10:00+00:00,206.6198,18.5,13.92,47.84626,-54.09684
2019-07-30 14:20:00+00:00,206.0714,18.52,14.16,47.84626,-54.09684
2019-07-30 14:30:00+00:00,203.4815,18.5,14.88,47.84626,-54.09684
2019-07-30 14:40:00+00:00,199.7248,18.5,14.72,47.84626,-54.09684
2019-07-30 14:50:00+00:00,199.8531,18.5,14.64,47.84626,-54.09684
2019-07-30 15:00:00+00:00,199.5581,18.5,14.56,47.84626,-54.09684
2019-07-30 15:10:00+00:00,194.2231,18.5,14.48,47.84626,-54.09684
2019-07-30 15:20:00+00:00,192.8948,18.59,14.56,47.84626,-54.09684
2019-07-30 15:30:00+00:00,194.2564,18.56,14.56,47.84626,-54.09684
2019-07-30 15:40:00+00:00,193.6998,18.5,14.56,47.84626,-54.09684
2019-07-30 15:50:00+00:00,195.7281,18.5,14.48,47.84626,-54.09684
2019-07-30 16:00:00+00:00,196.8498,18.5,14.4,47.84626,-54.09684
2019-07-30 16:10:00+00:00,197.7164,18.4,14.32,47.84626,-54.09684
2019-07-30 16:20:00+00:00,201.3431,18.38,14.48,47.84626,-54.09684
2019-07-30 16:30:00+00:00,202.5948,18.45,14.4,47.84626,-54.09684
2019-07-30 16:40:00+00:00,202.0865,18.5,14.4,47.84626,-54.09684
2019-07-30 16:50:00+00:00,203.2248,18.49,14.4,47.84626,-54.09684
2019-07-30 17:00:00+00:00,209.2398,18.5,14.32,47.84626,-54.09684
2019-07-30 17:10:00+00:00,213.6248,18.5,14.24,47.84626,-54.09684
2019-07-30 17:20:00+00:00,215.3064,18.51,14.32,47.84626,-54.09684
2019-07-30 17:30:00+00:00,218.2747,18.5,14.24,47.84626,-54.09684
2019-07-30 17:40:00+00:00,224.2381,18.48,14.24,47.84626,-54.09684
2019-07-30 17:50:00+00:00,231.0181,18.4,14.24,47.84626,-54.09684
2019-07-30 18:00:00+00:00,231.6564,18.4,14.16,47.84626,-54.09684
2019-07-30 18:10:00+00:00,234.3814,18.45,14.0,47.84626,-54.09684
2019-07-30 18:20:00+00:00,243.713,18.3,14.08,47.84626,-54.09684
2019-07-30 18:30:00+00:00,249.2865,18.3,14.08,47.84626,-54.09684
2019-07-30 18:40:00+00:00,248.2648,18.3,14.08,47.84626,-54.09684
2019-07-30 18:50:00+00:00,254.5281,18.2,14.0,47.84626,-54.09684
2019-07-30 19:00:00+00:00,266.6014,18.0,13.92,47.84626,-54.09684
2019-07-30 19:10:00+00:00,270.7347,18.1,13.84,47.84626,-54.09684
2019-07-30 19:20:00+00:00,271.3881,18.1,13.84,47.84626,-54.09684
2019-07-30 19:30:00+00:00,282.093,18.1,13.76,47.84626,-54.09684
2019-07-30 19:40:00+00:00,295.703,18.0,13.84,47.84626,-54.09684
2019-07-30 19:50:00+00:00,301.9613,17.99,13.92,47.84626,-54.09684
2019-07-30 20:00:00+00:00,307.1697,17.9,13.92,47.84626,-54.09684
2019-07-30 20:10:00+00:00,319.6929,17.8,13.84,47.84626,-54.09684
2019-07-30 20:20:00+00:00,328.9296,17.8,13.84,47.84626,-54.09684
2019-07-30 20:30:00+00:00,331.8679,17.99,13.84,47.84626,-54.09684
2019-07-30 20:40:00+00:00,336.9363,17.9,13.76,47.84626,-54.09684
2019-07-30 20:50:00+00:00,345.8413,17.89,13.76,47.84626,-54.09684
2019-07-30 21:00:00+00:00,349.2429,17.9,13.68,47.84626,-54.09684
2019-07-30 21:10:00+00:00,350.933,17.9,13.68,47.84626,-54.09684
2019-07-30 21:20:00+00:00,357.2646,17.9,13.76,47.84626,-54.09684
2019-07-30 21:30:00+00:00,362.5063,17.9,13.76,47.84626,-54.09684
2019-07-30 21:40:00+00:00,363.5946,17.9,13.76,47.84626,-54.09684
2019-07-30 21:50:00+00:00,365.3463,17.9,13.76,47.84626,-54.09684
2019-07-30 22:00:00+00:00,367.1896,17.95,13.68,47.84626,-54.09684
2019-07-30 22:10:00+00:00,368.3613,18.1,13.53,47.84626,-54.09684
2019-07-30 22:20:00+00:00,370.6262,18.0,13.53,47.84626,-54.09684
2019-07-30 22:30:00+00:00,373.3263,17.9,13.53,47.84626,-54.09684
2019-07-30 22:40:00+00:00,373.4846,17.96,13.44,47.84626,-54.09684
2019-07-30 22:50:00+00:00,373.0212,18.01,13.44,47.84626,-54.09684
2019-07-30 23:00:00+00:00,375.9162,18.11,13.29,47.84626,-54.09684
2019-07-30 23:10:00+00:00,372.8112,18.5,13.21,47.84626,-54.09684
2019-07-30 23:20:00+00:00,369.6412,18.8,13.13,47.84626,-54.09684
2019-07-30 23:30:00+00:00,370.0096,18.82,13.13,47.84626,-54.09684
2019-07-30 23:40:00+00:00,364.6747,19.0,13.13,47.84626,-54.09684
2019-07-30 23:50:00+00:00,357.1163,19.03,13.05,47.84626,-54.09684
